Location: Knowlton
(51.2333°N, 1.2667°E)
Time: 04:54:49
(UTC+00:00)

ZACube-1 - Pass Details

Date: 04 December 2021
Orbit: 582 x 665 km, 97.6° (Epoch: 25 January)

Event Time Altitude Azimuth Distance (km) Brightness Sun altitude
Rises 06:07:45 0° 0° (N) 2,995 ? -13.8°
Reaches altitude 10° 06:10:50 10° 338° (NNW) 2,089 ? -13.3°
Enters shadow 06:11:38 12° 329° (NNW) 1,930 ? -13.2°
